Other Surface Observations
Issued by NWS Tucson, AZ

Home | Current Version | Previous Version | Text Only | Print | Product List | Glossary On
Versions: 1 2 3 4 5 6 7 8 9 10 11 12 13 14 15 16 17 18 19 20 21 22 23 24 25 26 27 28 29 30 31 32 33 34 35 36 37 38 39 40 41 42 43 44 45 46 47 48 49 50
708
SXUS55 KTWC 110915
OSOTWC

WEATHER ROUNDUP FOR SOUTHEAST ARIZONA
NATIONAL WEATHER SERVICE TUCSON AZ
215 AM MST THU FEB 11 2016

AZZ504>506-514-111015-
LOCATION       SKY/WX    TMP DP  RH WIND       PRES   REMARKS
TUCSON         CLEAR     51  22  31 SE12      30.21R
DAVIS-MONTHAN  PTCLDY    49  21  32 SE7       30.19S
CHILDRENS PARK N/A      N/A N/A  37 E3                PIMA CO DEQ
ALVERNON/22ND  N/A       53 N/A N/A SE2               PIMA CO DEQ
CHERRY/GLENN   N/A       52 N/A N/A E3                PIMA CO DEQ
TANGERINE      N/A       50 N/A N/A NE5               PIMA CO DEQ
CONTL RANCH    N/A       54  26  34 SE6               PIMA CO DEQ
GRANT/1ST      N/A       53  27  36 W8                PIMA CO DEQ
CRAYCROFT/22ND N/A       53  22  29 SE3               PIMA CO DEQ
GOLFLINKS/KOLB N/A       54  21  27 SE5               PIMA CO DEQ
AJO/12TH       N/A       49  25  38 S6                PIMA CO DEQ
SAGUARO EAST   N/A       17 -19  17 SE2               PIMA CO DEQ
FAIRGROUNDS    N/A       49 N/A N/A NW0               PIMA CO DEQ
SAGUARO        N/A       50  21  31 N3                *SABINO CYN
SAN CARLOS     N/A       47  28  47 NW5               *SAN CARLOS
GREEN VALLEY   N/A       46  22  39 S6                PIMA CO DEQ
HORSE CAMP CYN N/A       52  22  31 E13G16            *ARAVAIPA CYN
RINCON MTNS    N/A       45   3  17 NE3               *NR MANNING CAMP
$$

AZZ509>511-111015-
LOCATION       SKY/WX    TMP DP  RH WIND       PRES   REMARKS
SAFFORD        PTCLDY    41  22  46 E5        30.21F
STRAY HORSE    N/A       48  -8   9 N6G15             *
TRAIL CABIN    N/A       40  22  49 S3                *N OF GRANVILLE
BLACK HILLS    N/A       43  25  49 SE2               *N OF FT THOMAS
DRY LAKE       N/A       47  -2  12 NW2               *NATANES MTNS
NOON CREEK     N/A       51  20  29 SW9               *PINALENO MTNS
COLUMBINE      N/A       29   7  38 CALM              *PINALENO MTNS
GUTHRIE        N/A       53  17  24 NW3G10            *SW OF GUTHRIE
$$

AZZ502-503-513-111015-
LOCATION       SKY/WX    TMP DP  RH WIND       PRES   REMARKS
NOGALES        CLEAR     43  19  38 S3        30.24S
SELLS          N/A       60  25  26 E6                *
SASABE         N/A       37  23  57 SW6               *ALTAR VLY
HOPKINS        N/A       51   9  18 W6                *SANTA RITA MTNS
CARR CYN       N/A       47  16  28 S2                *W OF HEREFORD
$$

AZZ507-508-512-111015-
LOCATION       SKY/WX    TMP DP  RH WIND       PRES   REMARKS
SIERRA VISTA   CLEAR     49  17  27 SW6       30.27S
DOUGLAS        PTCLDY    39  14  36 SE3       30.25S
EMPIRE MTNS    N/A       38  16  41 W4                *LAS CIENEGAS NCA
MULESHOE RANCH N/A       47  21  35 CALM              *PRESERVE
HEADQUARTERS   N/A       46  19  33 E3                *CHIRICAHUA MTNS
$$

.............................NOTES.............................
THIS IS AN AUTOMATED COLLECTIVE WITH MINIMAL QUALITY CONTROL.
PIMA CO DEQ SITES HAVE NONSTANDARD WIND SENSOR HEIGHTS.
PIMA CO DEQ SITES DO NOT REPORT WIND GUSTS.
* INDICATES WIND SENSORS LOCATED AT 20 FEET INSTEAD OF 33 FEET.
..............................KEY..............................
SKY/WX - SKY CONDITION/WEATHER
TMP    - TEMPERATURE IN FAHRENHEIT
DP     - DEWPOINT IN FAHRENHEIT
RH     - RELATIVE HUMIDITY IN PERCENT
WIND   - DIRECTION AND SPEED IN MILES PER HOUR (MPH)
VRB    - VARIABLE WIND DIRECTION
PRES   - MEAN SEA LEVEL PRESSURE IN INCHES OF MERCURY
         F - FALLING PRESSURE   R - RISING PRESSURE
         S - STEADY PRESSURE
VSB    - VISIBILITY IN MILES
HX     - HEAT INDEX IN FAHRENHEIT
WCI    - WIND CHILL INDEX IN FAHRENHEIT
N/A    - NOT AVAILABLE
AFB    - AIR FORCE BASE
         DAVIS-MONTHAN IS DAVIS-MONTHAN AIR FORCE BASE
CYN    - CANYON
MTNS   - MOUNTAINS
NCA    - NATIONAL CONSERVATION AREA
NR     - NEAR
VLY    - VALLEY
CONTL  - CONTINENTAL
PIMA CO DEQ - PIMA COUNTY DEPT OF ENVIRONMENTAL QUALITY



USA.gov is the U.S. government's official web portal to all federal, state and local government web resources and services.